Location: Alafon
(8.4500°N, 4.2333°E)
Time: 22:11:24
(UTC+00:00)

Explorer 7 - Pass Details

Date: 26 July 2021
Orbit: 484 x 676 km, 50.3° (Epoch: 18 September)

Event Time Altitude Azimuth Distance (km) Brightness Sun altitude
Rises 14:57:51 0° 327° (NNW) 2,952 11.1 43.2°
Reaches altitude 10° 15:00:10 10° 330° (NNW) 2,062 10.4 42.7°
Maximum altitude 15:04:55 67° 53° (NE) 724 7.9 41.5°
Drops below altitude 10° 15:09:46 10° 135° (SE) 2,101 9.5 40.4°
Sets 15:12:09 0° 138° (SE) 3,012 10.2 39.9°
